Current Weather Conditions: station 62114

sailwx.info

See reports from other nearby stations

no recent reports received from weather station ID 62114

Tides Pressure Air temp Water temp Dewpoint Dewpoint depression Visibility Wind speed Wind direction Waves Ship positions
date/time (UTC)wind fromknots sea level pressurealtimeterstation pressurevisibilityair tempwater tempwave heightnotes
2017-Oct-17 00:00 190 33 13.6
2017-Oct-16 23:00 190 28 13.7
2017-Oct-16 22:00 180 21 12.9
2017-Oct-16 21:00 150 27 12.5
2017-Oct-16 20:00 120 28 11.4
2017-Oct-16 19:00 110 32 12.1
2017-Oct-16 18:00 100 31 13.6
2017-Oct-16 17:00 100 28 12.1
2017-Oct-16 16:00 090 25 12.0
2017-Oct-16 15:00 080 21 11.0
2017-Oct-16 14:00 080 19 10.2
2017-Oct-16 13:00 080 13 10.2
2017-Oct-16 12:00 100 6 15.7
2017-Oct-16 11:00 210 1 10.8
2017-Oct-16 10:00 170 6 11.2
2017-Oct-16 09:00 150 6 11.4
2017-Oct-16 08:00 200 4 11.0
2017-Oct-16 07:00 210 5 11.0
2017-Oct-16 06:00 210 4 10.9
2017-Oct-16 05:00 240 4 10.8
2017-Oct-16 04:00 270 2 10.8
2017-Oct-16 03:00 300 5 13.5
2017-Oct-16 02:00 300 6 12.2
2017-Oct-16 01:00 290 6 11.9
2017-Oct-16 00:00 290 6 11.9
2017-Oct-15 23:00 300 12 11.0
2017-Oct-15 22:00 290 14 11.1
2017-Oct-15 21:00 290 14 11.0
2017-Oct-15 20:00 290 21 11.3
2017-Oct-15 19:00 290 25 11.6
2017-Oct-15 18:00 280 28 11.8
2017-Oct-15 17:00 230 33 14.0
2017-Oct-15 16:00 210 29 13.7
2017-Oct-15 15:00 210 29 13.6
2017-Oct-15 14:00 200 31 13.5
2017-Oct-15 13:00 210 32 13.7
2017-Oct-15 12:00 210 29 13.8
2017-Oct-15 11:00 200 27 13.7
2017-Oct-15 10:00 200 26 13.3
2017-Oct-15 09:00 200 29 13.2
2017-Oct-15 08:00 200 31 13.1
2017-Oct-15 07:00 190 29 13.2
2017-Oct-15 06:00 190 29 13.1
2017-Oct-15 05:00 190 27 13.3
2017-Oct-15 04:00 190 27 13.1
2017-Oct-15 03:00 180 28 12.8
2017-Oct-15 02:00 170 27 12.2
2017-Oct-15 01:00 160 15 11.8